Flag Weather past 2 weeks in Chennai, Tamil Nadu, India

Now
75 °F

Fog.


Feels Like: 74 °F
Forecast: 77 / 83 °F
Wind: No wind

Location: Madras / Minambakkam

Current Time: Nov 24, 2014 at 1:46:39 AM

Latest Report: Nov 24, 2014 at 1:10 AM


Visibility: 2 mi

Pressure: 29.86 "Hg

Humidity: 94%

Dew point: 73 °F

Location of ChennaiLocation

Historic Weather in Chennai — Graph

°F

Chennai temperature yesterday

Maximum temperature yesterday: 88 °F (at 12:40 PM)
Minimum temperature yesterday: 73 °F (at 3:40 AM)
Average temperature yesterday: 79 °F

Past Weeks' High & Low Weather Summary

 TemperatureHumidityPressure
High90 °F (Nov 10, 12:10 PM)100% (Nov 11, 3:10 AM)29.98 "Hg (Nov 11, 3:10 AM)
Low73 °F (Nov 23, 3:40 AM)52% (Nov 16, 1:40 PM)29.77 "Hg (Nov 9, 1:40 PM)
Average80 °F83%29.87 "Hg
* Reported Nov 9 12:40 AM — Nov 24 12:40 AM, Chennai, Weather by CustomWeather, © 2014

Note: Actual official high and low records may vary slightly from our data, if they occured in-between our weather recording intervals... More about our weather records

Advertising

Chennai weather history for previous 24 hours

 ConditionsComfort  
Time TempWeatherWind HumidityBarometerVisibility
12:40 AM
Nov 24
75 °FFog.No wind94%29.89 "Hg2 mi
11:40 PM
Nov 23
75 °FFog.No wind94%29.89 "Hg2 mi
11:10 PM75 °FFog.No wind94%29.89 "Hg2 mi
10:40 PM77 °FFog.No wind83%29.92 "Hg2 mi
10:10 PM77 °FFog.No wind83%29.92 "Hg2 mi
9:40 PM77 °FFog.No wind83%29.92 "Hg3 mi
9:10 PM79 °FFog.2 mph79%29.92 "Hg3 mi
8:40 PM79 °FFog.3 mph79%29.92 "Hg3 mi
8:10 PM79 °FFog.3 mph79%29.89 "Hg3 mi
7:40 PM79 °FFog.6 mph79%29.89 "Hg3 mi
7:10 PM79 °FFog.5 mph79%29.89 "Hg3 mi
6:40 PM81 °FPassing clouds.6 mph74%29.86 "Hg3 mi
6:10 PM81 °FPassing clouds.5 mph74%29.86 "Hg3 mi
5:10 PM82 °FScattered clouds.9 mph66%29.83 "Hg4 mi
4:40 PM84 °FScattered clouds.8 mph62%29.83 "Hg4 mi
4:10 PM84 °FScattered clouds.12 mph62%29.80 "Hg4 mi
3:40 PM84 °FScattered clouds.10 mph62%29.80 "Hg4 mi
3:10 PM86 °FScattered clouds.10 mph55%29.83 "Hg4 mi
2:40 PM86 °FScattered clouds.8 mph52%29.83 "Hg5 mi
2:10 PM86 °FScattered clouds.7 mph55%29.83 "Hg5 mi
1:40 PM88 °FScattered clouds.8 mph52%29.86 "Hg5 mi
1:10 PM86 °FScattered clouds.12 mph59%29.86 "Hg5 mi
12:40 PM88 °FScattered clouds.9 mph59%29.89 "Hg4 mi
12:10 PM86 °FScattered clouds.12 mph59%29.89 "Hg4 mi
11:40 AM86 °FScattered clouds.12 mph59%29.92 "Hg4 mi
10:10 AM82 °FFog.7 mph79%29.92 "Hg1 mi
9:40 AM81 °FFog.5 mph84%29.92 "Hg1 mi
9:10 AM79 °FFog.5 mph89%29.92 "Hg1 mi
8:10 AM77 °FFog.5 mph89%29.89 "Hg1 mi
7:40 AM77 °FFog.5 mph89%29.89 "Hg1 mi
6:40 AM73 °FFog.No wind94%29.86 "Hg1 mi
5:40 AM73 °FFog.No wind100%29.86 "Hg1 mi
5:10 AM73 °FFog.No wind94%29.83 "Hg1 mi
4:40 AM73 °FFog.No wind94%29.83 "Hg2 mi
3:40 AM73 °FFog.No wind94%29.83 "Hg2 mi
2:40 AM75 °FFog.No wind89%29.83 "Hg2 mi
2:10 AM75 °FFog.No wind89%29.86 "Hg3 mi
1:40 AM75 °FFog.No wind89%29.86 "Hg3 mi
1:10 AM75 °FFog.No wind89%29.89 "Hg3 mi
Weather by CustomWeather, © 2014

See weather overviewHow to use our weather pages